Regional Weather Roundup
Issued by NWS

Home | Current Version | Previous Version | Text Only | Print | Product List | Glossary Off
Versions: 1 2 3 4 5 6 7 8 9 10 11 12 13 14 15 16 17 18 19 20 21 22 23 24 25 26 27 28 29 30 31 32 33 34 35 36 37 38 39 40 41 42 43 44 45 46 47 48 49 50

000
ASUS43 KMPX 050301
RWRMN
WEATHER ROUNDUP FOR MINNESOTA
NATIONAL WEATHER SERVICE TWIN CITIES/CHANHASSEN MN
1000 PM CDT TUE AUG 04 2015


NOTE: "FAIR" INDICATES FEW OR NO CLOUDS BELOW 12,000 FEET WITH NO
SIGNIFICANT WEATHER AND/OR OBSTRUCTIONS TO VISIBILITY. N/A MEANS
CURRENT SKY AND/OR WEATHER CONDITIONS ARE NOT AVAILABLE.

MNZ060>063-068>070-050400-
   Twin Cities Metro

CITY           SKY/WX    TMP DP  RH WIND       PRES   REMARKS
TWIN CITIES    PTCLDY    74  51  44 W6        30.01R
ST PAUL        MOCLDY    72  58  61 CALM      30.01R
CRYSTAL        FAIR      69  54  58 W5        29.99R
BLAINE         CLEAR     66  57  72 CALM      30.01R
LAKEVILLE      CLEAR     64  57  77 SW5       30.02R
EDEN PRAIRIE   CLEAR     70  55  59 W5        30.00R
SOUTH ST PAUL  PTCLDY    73  55  52 CALM      30.00R
LAKE ELMO      FAIR      63  59  88 CALM      30.02R
$$
MNZ001>005-007-008-013>017-022>024-027-028-050400-
   Northwest Minnesota

CITY           SKY/WX    TMP DP  RH WIND       PRES   REMARKS
BEMIDJI        CLEAR     59  53  80 CALM      30.05R
HALLOCK        CLEAR     61  55  82 N5        30.03R
ROSEAU         CLEAR     61  54  77 SE7       30.04R
WARROAD        CLEAR     59  54  82 SE6       30.05R
THIEF RVR FALL CLEAR     63  54  72 E7        30.04R
CROOKSTON      CLEAR     66  54  63 E3        30.04R
FOSSTON        CLEAR     59  48  67 CALM      30.05R
DETROIT LAKES  CLEAR     66  54  63 CALM      30.05R
MOORHEAD       CLEAR     66  55  68 E3        30.03R
PARK RAPIDS    CLEAR     67  53  61 E3        30.04R
MAHNOMEN       FAIR      62  56  81 E3        30.03R
$$
MNZ006-009>011-018-025>026-050400-
   North Central Minnesota

CITY           SKY/WX    TMP DP  RH WIND       PRES   REMARKS
BAUDETTE       CLEAR     58  52  80 E6        30.04S
FLAG ISLAND    CLEAR     64  52  63 NE3       30.03S
INTL FALLS     CLEAR     49  47  93 CALM      30.06R
WASKISH        CLEAR     54  52  94 CALM      30.06R
BIG FORK       CLEAR     52  50  93 CALM      30.07R
LONGVILLE      CLEAR     55  54  94 CALM      30.04R
GRAND RAPIDS   CLEAR     59  48  67 CALM      30.06R
ORR            CLEAR     52  48  87 CALM      30.04R
COOK           CLEAR     52  48  87 CALM      30.07R
WALKER         FAIR      62  51  68 N3        30.04R
$$
MNZ012-019>021-037-050400-
   Northeast Minnesota

CITY           SKY/WX    TMP DP  RH WIND       PRES   REMARKS
DULUTH         PTCLDY    57  49  74 E5        30.05R
ELY            MOCLDY    57  50  77 CALM      30.06S
HIBBING        CLEAR     54  48  80 N3        30.06R
EVELETH        CLEAR     52  48  87 CALM      30.07R
DULUTH HARBOR  PTCLDY    55  50  82 N10       30.04R
TWO HARBORS    CLEAR     57  52  82 CALM      30.04R
SILVER BAY     CLEAR     52  48  87 CALM      30.04R
GRAND MARAIS     N/A     47  45  93 CALM      30.03R
G MARAIS ARPRT CLEAR     48  45  87 CALM      30.07R
$$
MNZ029>031-032-039>041-046>048-054>057-064-050400-
   West Central Minnesota

CITY           SKY/WX    TMP DP  RH WIND       PRES   REMARKS
FERGUS FALLS   CLEAR     66  54  63 CALM      30.02R
WHEATON        CLEAR     61  55  82 NE3       30.03R
MORRIS         CLEAR     66  55  68 CALM      30.02R
ALEXANDRIA     CLEAR     66  59  78 CALM      30.05R
ELBOW LAKE     FAIR      69  58  67 CALM      30.02R
WADENA         CLEAR     61  54  77 CALM      30.04R
GLENWOOD       CLEAR     66  55  68 CALM      30.04R
APPLETON       CLEAR     64  59  82 CALM      30.01R
BENSON         CLEAR     61  55  82 CALM      30.02R
ORTONVILLE     PTCLDY    70  57  64 E3        30.01S
MADISON        PTCLDY    64  55  72 SE5       30.01S
WILLMAR        FAIR      66  59  77 CALM      30.03S
$$
MNZ033>034-036-042>043-049>051-058-059-050400-
   Central Minnesota

CITY           SKY/WX    TMP DP  RH WIND       PRES   REMARKS
ST CLOUD       CLEAR     64  57  78 CALM      30.02R
SAUK CENTRE    FAIR      63  57  81 CALM      30.04R
PAYNESVILLE    CLEAR     59  55  88 CALM      30.03R
AITKIN         CLEAR     59  52  77 N6        30.02R
PINE RIVER     CLEAR     57  54  88 CALM      30.08R
BRAINERD       CLEAR     64  52  64 CALM      30.04R
STAPLES        CLEAR     66  54  63 NE3       30.04R
LONG PRAIRIE   FAIR      61  55  82 CALM      30.04R
LITCHFIELD     CLEAR     66  59  77 CALM      30.03R
BUFFALO        CLOUDY    68  58  69 CALM      30.02R
MAPLE LAKE     PTCLDY    64  59  82 CALM      30.03R
$$
MNZ037-044-045-052-053-050400-
   East Central Minnesota

CITY           SKY/WX    TMP DP  RH WIND       PRES   REMARKS
PRINCETON      CLEAR     63  57  82 CALM      30.03R
MORA           CLEAR     59  54  82 CALM      30.05R
CAMBRIDGE      CLEAR     64  55  72 CALM      30.01R
RUSH CITY      CLEAR     59  55  85 CALM      30.03R
MOOSE LAKE     PTCLDY    61  52  72 NE3       30.02R
HINCKLEY       FAIR      59  57  94 N3        30.02R
CLOQUET        PTCLDY    61  48  63 NE6       30.05R
MCGREGOR       CLEAR     59  54  82 CALM      30.04R
$$
MNZ071>073-080-081-089-090-097-098-050400-
   Southwest Minnesota

CITY           SKY/WX    TMP DP  RH WIND       PRES   REMARKS
MONTEVIDEO     PTCLDY    64  55  72 S3        30.03S
GRANITE FALLS  PTCLDY    63  57  81 CALM      30.03S
CANBY          PTCLDY    65  58  80 CALM      30.03R
MARSHALL       PTCLDY    66  55  68 CALM      30.04R
REDWOOD FALLS  PTCLDY    67  56  67 CALM      30.02R
OLIVIA         CLEAR     64  54  68 CALM      30.02R
PIPESTONE      PTCLDY    66  59  77 CALM      30.04R
WINDOM         PTCLDY    64  55  72 CALM      30.04R
WORTHINGTON    PTCLDY    64  57  77 SE5       30.04R
JACKSON        PTCLDY    64  57  77 SE5       30.04S
SLAYTON        PTCLDY    65  58  79 CALM      30.05R
$$
MNZ065>067-074>077-082>085-091>093-050400-
   South Central Minnesota

CITY           SKY/WX    TMP DP  RH WIND       PRES   REMARKS
MANKATO        CLEAR     70  52  52 S6        30.03S
NEW ULM        CLEAR     64  54  68 S3        30.03R
ST JAMES       PTCLDY    63  57  82 SE5       30.04R
FAIRMONT       CLEAR     64  54  68 SE5       30.03S
GLENCOE        CLEAR     64  59  86 CALM      30.02R
FARIBAULT      CLEAR     66  55  68 CALM      30.03S
OWATONNA       CLEAR     63  54  72 SW6       30.04S
WASECA         CLEAR     59  55  88 CALM      30.05S
ALBERT LEA     CLEAR     63  59  88 CALM      30.05R
$$
MNZ078>079-086>088-094>096-050400-
   Southeast Minnesota

CITY           SKY/WX    TMP DP  RH WIND       PRES   REMARKS
ROCHESTER      CLEAR     61  55  81 SW8       30.06R
RED WING       PTCLDY    64  61  88 CALM      30.00R
STANTON        CLEAR     64  57  76 S3        30.01R
DODGE CENTER   CLEAR     59  54  82 CALM      30.05R
WINONA         CLEAR     66  59  77 CALM      30.02R
AUSTIN         CLEAR     63  57  82 CALM      30.05S
PRESTON        FAIR      62  55  78 SW5       30.06R
$$
ABBREVIATIONS USED IN REMARKS
   TC - TEMPERATURES IN CELSIUS
  WCI - WIND CHILL INDEX
   HX - HEAT INDEX
  VSB - VISIBILITY
$$



USA.gov is the U.S. government's official web portal to all federal, state and local government web resources and services.